Simultaneous Nadir Overpasses (SNOs) Predictions

Prediction of SNOs between GOES-15 and TERRA Satellite Orbit:

Table of predicted SNOs for the next 14.0 days since TLE Epoch: 5/6/2023
Index Date Time (GOES-15) GOES-15 Lat,Lon TERRA Lat,Lon Distance(km) Time Diff (sec)
1 05/07/2023 07:32:20 0.23,-144.23 0.78,-141.72 286.18 80
2 05/07/2023 19:55:13 -0.23,-144.47 0.25,-146.63 245.86 80
3 05/09/2023 19:36:22 -0.24,-145.39 -0.79,-142.75 299.86 80
4 05/10/2023 07:59:24 0.24,-145.63 -0.22,-147.71 236.45 80
5 05/12/2023 07:40:32 0.25,-146.54 0.79,-143.82 308.42 80
6 05/12/2023 20:03:26 -0.24,-146.77 0.16,-148.75 224.05 80
7 05/14/2023 19:44:33 -0.25,-147.68 -0.82,-144.85 321.04 80
8 05/15/2023 08:07:34 0.24,-147.92 -0.18,-149.81 215.08 80
9 05/17/2023 07:48:42 0.25,-148.82 0.83,-145.92 329.54 80
10 05/17/2023 20:11:34 -0.24,-149.05 0.16,-150.84 203.21 80
11 05/19/2023 19:52:41 -0.25,-149.95 -0.89,-146.95 340.80 80
